Lid_Strength_Index
10 12 14 14 9 9 7 6 6 7 5 6 8 4 3 1 0 -0 0 0 -0 -1 -1 -1 -1 -1 -2 -2 -2 -2 -2 -1
11 13 10 9 8 7 7 6 5 5 7 5 2 3 2 0 -0 0 0 0 -1 -1 -1 -1 -1 -1 -1 -2 -2 -2 -2 -1
14 13 10 8 7 7 8 7 6 5 8 7 3 1 1 1 0 1 0 0 -0 -1 -1 -1 -1 -1 -1 -2 -2 -2 -2 -1
14 13 10 8 7 7 7 7 6 6 7 6 2 2 1 0 1 -0 0 0 0 -1 -1 -1 -1 -1 -1 -1 -2 -2 -1 -1
13 12 11 9 6 7 7 7 7 5 8 5 4 2 1 1 0 0 -0 0 0 0 -1 -1 -1 -1 -1 -1 -1 -2 -1 -1
14 11 12 7 7 6 6 8 4 4 7 7 4 1 1 1 1 0 0 0 1 1 0 0 0 -1 -1 -1 -1 -1 -1 -1
15 11 10 7 8 6 4 6 5 5 4 3 2 1 2 2 2 1 1 1 1 0 1 1 0 -0 -1 -1 -1 -1 -1 -1
9 8 9 8 7 7 7 7 7 6 4 3 4 5 5 5 6 6 5 4 4 2 1 0 -0 0 1 0 0 0 0 0
8 7 7 7 8 6 7 9 7 7 6 5 6 6 6 7 7 7 7 7 6 5 3 2 1 0 1 0 0 0 0 0
7 6 7 8 7 7 7 7 6 6 6 6 6 7 8 8 8 7 8 7 6 6 6 4 2 1 1 1 0 0 1 1
6 6 7 6 8 8 8 7 7 7 7 7 7 7 7 7 7 8 8 7 7 7 6 6 5 4 2 1 1 2 1 1
7 7 7 8 8 8 9 8 9 9 9 8 8 8 8 8 8 8 7 8 8 7 7 7 6 5 2 1 2 2 4 4
8 7 8 8 10 10 9 9 10 10 10 9 9 8 9 8 8 8 8 8 8 7 6 7 7 6 5 5 5 6 6 5
8 7 7 8 13 7 8 10 11 10 10 10 10 9 8 8 8 8 8 8 8 8 8 8 7 6 6 6 6 7 7 6
10 7 8 9 12 7 6 7 10 11 11 11 11 10 9 8 8 8 8 8 9 8 8 8 9 8 7 7 7 8 8 7
11 8 9 10 10 7 7 7 8 8 10 10 11 10 9 8 7 7 8 8 8 8 9 8 8 8 8 8 7 8 7 7
10 8 10 10 10 8 7 8 9 9 9 9 9 9 8 8 7 8 8 8 8 9 9 9 8 9 8 10 10 9 8 8
9 8 10 10 11 9 8 8 9 9 9 9 8 8 8 8 8 9 9 9 9 9 9 9 9 9 8 8 9 8 9 9
10 9 9 10 12 10 9 9 8 9 9 9 9 8 7 9 9 9 10 9 9 9 8 9 9 9 9 9 9 9 9 9
9 11 15 10 17 12 10 10 9 10 10 9 9 9 8 7 9 9 9 9 9 8 8 8 8 8 9 10 10 10 9 9